Location: Canazei
(46.4667°N, 11.7667°E)
Time: 05:21:33
(UTC+00:00)

Meteor 2-4 Rocket - Pass Details

Date: 21 April 2021
Orbit: 799 x 909 km, 81.2° (Epoch: 15 May)

Event Time Altitude Azimuth Distance (km) Brightness Sun altitude
Exits shadow 00:56:22 43° 134° (SE) 1,258 4.4 -27.1°
Maximum altitude 00:57:43 51° 94° (E) 1,130 4.4 -27.0°
Drops below altitude 10° 01:03:24 10° 20° (NNE) 2,583 7.2 -26.5°
Sets 01:05:54 0° 16° (NNE) 3,516 8.1 -26.3°
